This is the latest recevied weather packets stored in our database for station/object K4TH. If no packets are shown the sender has not sent any weather packets the latest 1 day(s).
| Time | Temp. | Humidity | Pressure | Rain* | Wind** | Luminosity | Snow |
|---|---|---|---|---|---|---|---|
| 1778029708 | 22.78° C | 70% | 1011.1 hPa | 0 mm | 0 m/s | 0 W/m² | - |
| 1778029406 | 23.33° C | 69% | 1011.3 hPa | 0 mm | 0 m/s | 0 W/m² | - |
| 1778029103 | 22.78° C | 66% | 1011.2 hPa | 0 mm | 0 m/s | 0 W/m² | - |
| 1778028800 | 22.78° C | 69% | 1011 hPa | 0 mm | 0 m/s | 0 W/m² | - |
| 1778028495 | 23.33° C | 67% | 1011.1 hPa | 0 mm | 0 m/s | 0 W/m² | - |
| 1778028194 | 23.89° C | 66% | 1011 hPa | 0 mm | 0 m/s | 0 W/m² | - |
| 1778027889 | 23.89° C | 61% | 1011.1 hPa | 0 mm | 0 m/s | 0 W/m² | - |
| 1778027586 | 23.89° C | 60% | 1011.2 hPa | 0 mm | 0 m/s | 0 W/m² | - |
| 1778027282 | 24.44° C | 60% | 1011.2 hPa | 0 mm | 0 m/s | 1 W/m² | - |
| 1778026979 | 24.44° C | 60% | 1011 hPa | 0 mm | 0 m/s | 1 W/m² | - |
| 1778026674 | 24.44° C | 60% | 1011.1 hPa | 0 mm | 0 m/s | 2 W/m² | - |
| 1778026372 | 24.44° C | 59% | 1011.3 hPa | 0 mm | 0.45 m/s, 55° | 2 W/m² | - |
| 1778026069 | 24.44° C | 60% | 1011.4 hPa | 0 mm | 0.45 m/s, 55° | 3 W/m² | - |
| 1778025766 | 24.44° C | 59% | 1011.4 hPa | 0 mm | 0.45 m/s, 60° | 4 W/m² | - |
| 1778025463 | 25° C | 59% | 1011.3 hPa | 0 mm | 0.89 m/s, 66° | 5 W/m² | - |
| 1778025161 | 25° C | 59% | 1011.4 hPa | 0 mm | 0 m/s | 6 W/m² | - |
| 1778024857 | 25° C | 59% | 1011.2 hPa | 0 mm | 0.89 m/s, 64° | 8 W/m² | - |
| 1778024555 | 25° C | 59% | 1011.4 hPa | 0 mm | 0.45 m/s, 54° | 10 W/m² | - |
| 1778024251 | 25° C | 58% | 1011.6 hPa | 0 mm | 0.89 m/s, 58° | 11 W/m² | - |
| 1778023950 | 25° C | 59% | 1011.5 hPa | 0 mm | 0.89 m/s, 140° | 16 W/m² | - |
| 1778023646 | 25° C | 59% | 1011.3 hPa | 0 mm | 0.45 m/s, 64° | 22 W/m² | - |
| 1778023344 | 25° C | 58% | 1011.4 hPa | 0 mm | 0.45 m/s, 194° | 23 W/m² | - |
| 1778023040 | 25° C | 59% | 1011.6 hPa | 0 mm | 1.79 m/s, 176° | 20 W/m² | - |
| 1778022740 | 25° C | 59% | 1011.8 hPa | 0 mm | 0.89 m/s, 113° | 19 W/m² | - |
| 1778022437 | 25° C | 60% | 1011.7 hPa | 0 mm | 0.89 m/s, 76° | 21 W/m² | - |
* Rain latest hour (hover to see other rain measurements)
** Current wind speed in m/s (hover to see current wind gust speed)